Regional Weather Roundup
Issued by NWS Portland, ME

Home | Current Version | Previous Version | Text Only | Print | Product List | Glossary On
Versions: 1 2 3 4 5 6 7 8 9 10 11 12 13 14 15 16 17 18 19 20 21 22 23 24 25 26 27 28 29 30 31 32 33 34 35 36 37 38 39 40 41 42 43 44 45 46 47 48 49 50
000
ASUS41 KGYX 271410
RWRGYX
WEATHER ROUNDUP FOR MAINE AND NEW HAMPSHIRE
NATIONAL WEATHER SERVICE GRAY ME
1000 AM EDT FRI MAY 27 2016

MEZ002-005-006-010-012-015-018-020-021-024-026-027-029-271500-
MAINE

CITY           SKY/WX    TMP DP  RH WIND       PRES   REMARKS
PORTLAND       CLOUDY    56  52  86 E9        30.17S
SANFORD        CLOUDY    57  48  72 E5        30.16S
BAR HARBOR     CLOUDY    49  44  83 E7        30.23R
WISCASSET      LGT RAIN  56  51  84 E6        30.19F
ROCKLAND       PTSUNNY   52  47  83 E12       30.20S
FRYEBURG       CLOUDY    60  53  77 NE5       30.16F
LEWISTONAUBURN CLOUDY    57  50  77 NE5       30.17S
AUGUSTA        LGT RAIN  53  51  93 E5        30.18F
WATERVILLE     CLOUDY    56  50  80 CALM      30.16S
BANGOR         CLOUDY    54  48  80 SE8       30.20S
GREENVILLE       N/A     49  46  90 S7        30.14S
MILLINOCKET    CLOUDY    51  48  89 VRB3      30.21R
HOULTON        CLOUDY    46  43  89 VRB3      30.19R
PRESQUE ISLE   CLOUDY    45  43  93 SE9       30.19R
FRENCHVILLE    LGT RAIN  45  42  89 SE12      30.14F
CARIBOU        LGT RAIN  46  43  89 SE7       30.17R
$$

NHZ002-005-008-009-011-012-014-271500-
NEW HAMPSHIRE

CITY           SKY/WX    TMP DP  RH WIND       PRES   REMARKS
ROCHESTER      CLOUDY    59  51  75 N7        30.14R
NASHUA         PTSUNNY   66  56  70 CALM      30.13S
MANCHESTER     CLOUDY    64  53  67 N8        30.11F
CONCORD        CLOUDY    63  53  70 N7        30.14S
LACONIA        CLOUDY    61  54  77 E10       30.15F
PLYMOUTH       FAIR      65  53  63 SE6       30.13S
BERLIN         MOSUNNY   69  51  52 S6        30.11S
WHITEFIELD     MOSUNNY   69  55  60 E6        30.09R
JAFFREY        CLOUDY    69  57  65 VRB5      30.12F
KEENE          MOSUNNY   72  57  60 CALM      30.10R
LEBANON        MOSUNNY   70  57  63 MISG      30.09S
MT WASHINGTON  PTSUNNY   52  50  93 SW37        N/A
$$

VTZ005-007-008-271500-
VERMONT

CITY           SKY/WX    TMP DP  RH WIND       PRES   REMARKS
ST JOHNSBURY     N/A     71  54  54 MISG      30.05F
MONTPELIER     FAIR      71  58  63 S15       30.10F
BURLINGTON     PTSUNNY   80  58  46 SW14      29.99S
$$

MAZ007-012-024-CTZ003-RIZ002-NYZ038-NYZ072-271500-
SOUTHERN NEW ENGLAND AND NY

CITY           SKY/WX    TMP DP  RH WIND       PRES   REMARKS
BOSTON         PTSUNNY   68  58  70 E7        30.11S
WORCESTER      SUNNY     68  57  68 E8        30.11F
NANTUCKET      MOSUNNY   63  58  83 S10       30.13S
PROVIDENCE     MOSUNNY   70  60  70 S6        30.10F
HARTFORD       PTSUNNY   75  59  57 S6        30.06S
ALBANY         CLOUDY    77  58  51 S9        30.03S
NEW YORK CITY  CLOUDY    78  67  68 SE7       30.06S
$$

ANZ081-ANZ082-ANZ150-NHZ014-MEZ023>029-271500-
COASTAL MARINE OBSERVATIONS

STATION/POSITION TIME  TEMP    WIND        PRES    WAVE
                       AIR SEA DIR/SP/G            HT/PER
                 (UTC) (F)     (DEG/KT/KT) (MB)    (FT/S)
MOUNT DESERT ROC 1400   47      60/ 11/ 12 1023.2R
MATINICUS ROCK   1400   51      80/ 16/ 17 1022.0R
ISLE OF SHOALS   1400   55      20/  7/  8 1020.3R
JEFFREYS LEDGE   1308      52                N/A     3/ 5
CASHES LEDGE BUO 1350   53 51  100/  8/ 10 1020.8R   3/ 7
GEORGES BANK BUO 1350   53 52              1022.1S   3/ 7
$$

.............KEY..............
   WCI - WIND CHILL
   TC  - TEMPERATURE IN CELSIUS
   VSB - VISIBILITY IN MILES
   HX  - HEAT INDEX
   FAIR- INDICATES FEW OR NO CLOUDS BELOW 12,000 FT, WITH NO
         SIGNIFICANT WEATHER AND/OR OBSTRUCTIONS TO VISIBILITY.





USA.gov is the U.S. government's official web portal to all federal, state and local government web resources and services.